User: anonymous   Login
Location: Gipe Farm
(40.9466°N, 95.5370°W)
Time: 08:07:26
(UTC-05:00)
Language:

Cosmos 1842 - Orbit

View from above orbital plane
View from above orbital plane
View from above satellite
View from above satellite

Ground track
Ground track

The orbit data is extracted from the following two-line orbital elements,

1 17911U 87038A   16120.37173785  .00000838  00000-0  48909-4 0  9999
2 17911  82.5243 238.0108 0010966 227.0431 132.9880 15.10562405579324
Epoch (UTC): 29 April 2016 08:55:18
Eccentricity: 0.0010966
inclination: 82.5243°
perigee height: 527 km
apogee height: 542 km
right ascension of ascending node: 238.0108°
argument of perigee: 227.0431°
revolutions per day: 15.10562405
mean anomaly at epoch: 132.9880°
orbit number at epoch: 57932

The dashed part of the orbit path shows where the satellite is in the earth's shadow,  

DLR